Date String (YYYY-MM-DD hh:mm:ss) UTC,Instrument flags,Ambient pressure (hPa),Sample flow (lpm),Bypass flow (lpm),Sample temperature (°C),Ambient temperature (°C),ASC tube jacket temperature (°C),LED temperature (°C),Box temperature (°C),Sample RH (%),Span deviation,Mass concentration (μg/m³),Mass concentration (μg/m³),Mass concentration (μg/m³)
DateTimeUTC,F1_M11,P_M11,Q1_M11,Q2_M11,T1_M11,T2_M11,T3_M11,T4_M11,T5_M11,U1_M11,ZSPAN_M11,X0_M11,X2_M11,X1_M11
2022-06-24 17:00:00,,0825.4,5.01,0.00,29.3,27.9,00.0,38.0,31.2,19.0,0000.0,0012.21,0003.38,0002.01
2022-06-24 17:01:00,,0825.5,5.00,0.00,29.2,27.2,00.0,37.9,31.0,19.0,0000.0,0011.88,0003.39,0002.01
2022-06-24 17:02:00,,0825.4,4.99,0.00,29.2,27.1,00.0,37.9,30.9,19.1,0000.0,0011.81,0003.36,0002.01
2022-06-24 17:03:00,,0825.4,5.00,0.00,29.1,27.1,00.0,37.9,30.9,19.0,0000.0,0011.81,0003.34,0002.02
2022-06-24 17:04:00,,0825.4,5.00,0.00,29.1,27.3,00.0,37.9,30.9,18.8,0000.0,0011.01,0003.33,0002.03
2022-06-24 17:05:00,,0825.4,5.01,0.00,29.1,27.4,00.0,37.9,31.0,18.8,0000.0,0010.72,0003.30,0002.04
2022-06-24 17:06:00,,0825.4,5.01,0.00,29.1,27.6,00.0,37.9,31.0,18.7,0000.0,0010.55,0003.25,0002.05
2022-06-24 17:07:00,,0825.3,5.00,0.00,29.1,27.8,00.0,37.9,31.1,18.8,0000.0,0009.73,0003.21,0002.06
2022-06-24 17:08:00,,0825.3,4.99,0.00,29.2,27.9,00.0,37.9,31.1,18.8,0000.0,0010.21,0003.22,0002.07
2022-06-24 17:09:00,,0825.3,5.00,0.00,29.2,28.1,00.0,38.0,31.2,18.9,0000.0,0009.66,0003.18,0002.07
2022-06-24 17:10:00,,0825.3,4.99,0.00,29.2,28.2,00.0,38.0,31.2,18.6,0000.0,0009.14,0003.14,0002.07
2022-06-24 17:11:00,,0825.3,5.01,0.00,29.3,28.2,00.0,38.0,31.2,18.7,0000.0,0008.96,0003.14,0002.07
2022-06-24 17:12:00,,0825.3,5.01,0.00,29.2,27.6,00.0,37.9,31.1,19.4,0000.0,0008.86,0003.13,0002.06
2022-06-24 17:13:00,,0825.3,5.00,0.00,29.2,27.0,00.0,37.9,30.9,19.4,0000.0,0009.20,0003.13,0002.05
2022-06-24 17:14:00,,0825.3,4.99,0.00,29.1,27.0,00.0,37.9,30.9,19.6,0000.0,0008.96,0003.11,0002.04
2022-06-24 17:15:00,,0825.3,5.01,0.00,29.1,27.1,00.0,37.9,30.9,19.6,0000.0,0008.76,0003.10,0002.04
2022-06-24 17:16:00,,0825.3,5.00,0.00,29.1,27.2,00.0,37.9,30.9,19.6,0000.0,0008.80,0003.12,0002.04
2022-06-24 17:17:00,,0825.3,5.00,0.00,29.1,27.4,00.0,37.9,30.9,19.8,0000.0,0009.07,0003.17,0002.04
2022-06-24 17:18:00,,0825.2,5.00,0.00,29.1,27.6,00.0,37.9,31.0,19.6,0000.0,0009.43,0003.22,0002.06
2022-06-24 17:19:00,,0825.3,5.00,0.00,29.1,27.8,00.0,37.9,31.1,19.0,0000.0,0008.62,0003.23,0002.08
2022-06-24 17:20:00,,0825.3,5.01,0.00,29.1,28.0,00.0,37.9,31.1,19.1,0000.0,0008.59,0003.26,0002.11
2022-06-24 17:21:00,,0825.3,5.00,0.00,29.2,28.1,00.0,37.9,31.2,19.2,0000.0,0008.68,0003.27,0002.13
2022-06-24 17:22:00,,0825.2,5.01,0.00,29.2,28.2,00.0,37.9,31.2,19.1,0000.0,0008.63,0003.26,0002.15
2022-06-24 17:23:00,,0825.2,5.00,0.00,29.2,27.8,00.0,37.9,31.1,18.7,0000.0,0008.53,0003.26,0002.17
2022-06-24 17:24:00,,0825.2,4.99,0.00,29.1,27.1,00.0,37.8,30.9,18.9,0000.0,0008.24,0003.27,0002.20
2022-06-24 17:25:00,,0825.2,5.00,0.00,29.1,27.1,00.0,37.8,30.9,18.8,0000.0,0008.64,0003.30,0002.22
2022-06-24 17:26:00,,0825.2,5.00,0.00,29.1,27.2,00.0,37.8,30.9,18.6,0000.0,0008.91,0003.35,0002.24
2022-06-24 17:27:00,,0825.2,5.00,0.00,29.1,27.3,00.0,37.8,30.9,19.1,0000.0,0008.90,0003.38,0002.27
2022-06-24 17:28:00,,0825.2,5.00,0.00,29.1,27.5,00.0,37.8,31.0,19.1,0000.0,0008.53,0003.37,0002.29
2022-06-24 17:29:00,,0825.3,5.01,0.00,29.1,27.7,00.0,37.8,31.0,18.8,0000.0,0008.48,0003.35,0002.31
2022-06-24 17:30:00,,0825.3,5.00,0.00,29.1,27.8,00.0,37.9,31.1,18.8,0000.0,0009.10,0003.37,0002.31
2022-06-24 17:31:00,,0825.3,4.99,0.00,29.1,28.0,00.0,37.9,31.1,18.9,0000.0,0009.26,0003.39,0002.31
2022-06-24 17:32:00,,0825.3,4.99,0.00,29.2,28.1,00.0,37.9,31.2,19.0,0000.0,0009.58,0003.43,0002.32
2022-06-24 17:33:00,,0825.3,5.01,0.00,29.2,28.1,00.0,37.9,31.2,19.2,0000.0,0010.19,0003.42,0002.30
2022-06-24 17:34:00,,0825.3,5.00,0.00,29.2,27.5,00.0,37.8,31.0,19.1,0000.0,0010.32,0003.39,0002.29
2022-06-24 17:35:00,,0825.2,4.99,0.00,29.1,27.1,00.0,37.8,30.9,19.2,0000.0,0010.48,0003.38,0002.28
2022-06-24 17:36:00,,0825.2,5.00,0.00,29.1,27.1,00.0,37.8,30.9,19.3,0000.0,0010.18,0003.38,0002.27
2022-06-24 17:37:00,,0825.2,5.00,0.00,29.0,27.2,00.0,37.8,30.9,19.1,0000.0,0010.95,0003.37,0002.26
2022-06-24 17:38:00,,0825.2,5.00,0.00,29.0,27.3,00.0,37.8,30.9,18.6,0000.0,0011.37,0003.36,0002.25
2022-06-24 17:39:00,,0825.2,5.00,0.00,29.0,27.5,00.0,37.8,30.9,18.8,0000.0,0011.11,0003.33,0002.24
2022-06-24 17:40:00,,0825.2,5.00,0.00,29.0,27.6,00.0,37.8,31.0,18.7,0000.0,0011.45,0003.33,0002.22
2022-06-24 17:41:00,,0825.2,5.00,0.00,29.1,27.8,00.0,37.8,31.0,18.5,0000.0,0011.10,0003.34,0002.23
2022-06-24 17:42:00,,0825.1,5.00,0.00,29.1,28.0,00.0,37.8,31.1,18.7,0000.0,0010.90,0003.31,0002.21
2022-06-24 17:43:00,,0825.1,4.99,0.00,29.1,28.1,00.0,37.9,31.1,18.8,0000.0,0010.31,0003.25,0002.20
2022-06-24 17:44:00,,0825.1,5.01,0.00,29.2,28.2,00.0,37.9,31.2,18.5,0000.0,0009.81,0003.24,0002.21
2022-06-24 17:45:00,,0825.0,4.99,0.00,29.2,28.0,00.0,37.9,31.2,18.5,0000.0,0009.61,0003.26,0002.22
2022-06-24 17:46:00,,0825.1,5.01,0.00,29.2,27.3,00.0,37.8,31.0,18.5,0000.0,0009.38,0003.28,0002.24
2022-06-24 17:47:00,,0824.9,4.99,0.00,29.1,27.0,00.0,37.8,30.8,17.9,0000.0,0009.71,0003.29,0002.26
2022-06-24 17:48:00,,0825.0,5.01,0.00,29.1,27.0,00.0,37.8,30.8,17.9,0000.0,0008.68,0003.25,0002.27
2022-06-24 17:49:00,,0824.9,5.00,0.00,29.0,27.2,00.0,37.8,30.9,17.7,0000.0,0008.40,0003.24,0002.27
2022-06-24 17:50:00,,0824.9,5.00,0.00,29.0,27.3,00.0,37.8,30.9,17.8,0000.0,0008.44,0003.27,0002.27
2022-06-24 17:51:00,,0825.0,5.00,0.00,29.0,27.5,00.0,37.8,31.0,17.8,0000.0,0008.15,0003.29,0002.28
2022-06-24 17:52:00,,0824.9,4.99,0.00,29.1,27.7,00.0,37.8,31.0,17.7,0000.0,0007.88,0003.27,0002.28
2022-06-24 17:53:00,,0824.9,4.99,0.00,29.1,27.9,00.0,37.8,31.1,17.8,0000.0,0008.44,0003.27,0002.29
2022-06-24 17:54:00,,0824.9,5.00,0.00,29.1,28.1,00.0,37.8,31.1,18.3,0000.0,0008.91,0003.30,0002.30
2022-06-24 17:55:00,,0824.9,5.01,0.00,29.2,28.2,00.0,37.9,31.2,18.6,0000.0,0008.85,0003.31,0002.30
2022-06-24 17:56:00,,0824.9,5.00,0.00,29.2,28.2,00.0,37.9,31.2,18.0,0000.0,0008.85,0003.34,0002.31
2022-06-24 17:57:00,,0824.7,5.00,0.00,29.2,27.6,00.0,37.8,31.0,18.2,0000.0,0008.83,0003.34,0002.31
2022-06-24 17:58:00,,0824.8,5.00,0.00,29.1,27.3,00.0,37.8,30.9,17.8,0000.0,0009.00,0003.35,0002.31
2022-06-24 17:59:00,,0824.9,5.01,0.00,29.1,27.3,00.0,37.8,30.9,18.2,0000.0,0009.15,0003.36,0002.31
